| time (UTC) | temp F | wind direction | speed MPH | gust MPH | rain 1hr in | rain 24hr in | rain mn in | humidity % | barometer mb |
| 20260507095551 | 56 | 0 | 0.0 | 2.0 | 0.00 | 0.00 | 0.00 | 55 | 1015.7 |
| 20260507093603 | 55 | 0 | 0.0 | 3.0 | 0.00 | 0.00 | 0.00 | 60 | 1015.9 |
| 20260507093106 | 55 | 0 | 0.0 | 3.0 | 0.00 | 0.00 | 0.00 | 61 | 1016.1 |
| 20260507092609 | 55 | 0 | 0.0 | 4.0 | 0.00 | 0.00 | 0.00 | 61 | 1016.0 |
| 20260507091118 | 56 | 323 | 3.0 | 6.0 | 0.00 | 0.00 | 0.00 | 61 | 1016.1 |
| 20260507090621 | 56 | 294 | 3.0 | 6.0 | 0.00 | 0.00 | 0.00 | 61 | 1016.2 |
| 20260507085627 | 56 | 291 | 3.0 | 5.0 | 0.00 | 0.00 | 0.00 | 60 | 1016.3 |
| 20260507085130 | 56 | 294 | 1.0 | 5.0 | 0.00 | 0.00 | 0.00 | 60 | 1016.4 |
| 20260507084633 | 57 | 296 | 2.0 | 6.0 | 0.00 | 0.00 | 0.00 | 60 | 1016.5 |
| 20260507084136 | 57 | 293 | 4.0 | 6.0 | 0.00 | 0.00 | 0.00 | 60 | 1016.5 |
| 20260507083639 | 57 | 303 | 3.0 | 7.0 | 0.00 | 0.00 | 0.00 | 60 | 1016.5 |
| 20260507083142 | 57 | 298 | 4.0 | 7.0 | 0.00 | 0.00 | 0.00 | 59 | 1016.5 |
| 20260507081651 | 57 | 292 | 4.0 | 7.0 | 0.00 | 0.00 | 0.00 | 58 | 1016.5 |
| 20260507081154 | 57 | 284 | 5.0 | 7.0 | 0.00 | 0.00 | 0.00 | 58 | 1016.6 |
| 20260507075703 | 57 | 288 | 4.0 | 9.0 | 0.00 | 0.00 | 0.00 | 59 | 1016.7 |
| 20260507075206 | 57 | 281 | 5.0 | 9.0 | 0.00 | 0.00 | 0.00 | 59 | 1016.7 |
| 20260507073715 | 57 | 298 | 4.0 | 9.0 | 0.00 | 0.00 | 0.00 | 61 | 1016.7 |
| 20260507072721 | 57 | 295 | 4.0 | 8.0 | 0.00 | 0.00 | 0.00 | 62 | 1016.6 |
| 20260507071727 | 57 | 287 | 5.0 | 8.0 | 0.00 | 0.00 | 0.00 | 63 | 1016.9 |
| 20260507070733 | 57 | 284 | 6.0 | 9.0 | 0.00 | 0.00 | 0.00 | 63 | 1016.9 |
| 20260507070236 | 57 | 288 | 6.0 | 10.0 | 0.00 | 0.00 | 0.00 | 64 | 1017.0 |
| 20260507065739 | 57 | 286 | 8.0 | 10.0 | 0.00 | 0.00 | 0.00 | 64 | 1016.9 |
| 20260507065242 | 57 | 294 | 5.0 | 10.0 | 0.00 | 0.00 | 0.00 | 64 | 1017.0 |
| 20260507064817 | 57 | 290 | 7.0 | 10.0 | 0.00 | 0.00 | 0.00 | 64 | 1017.0 |
| 20260507064745 | 57 | 290 | 7.0 | 10.0 | 0.00 | 0.00 | 0.00 | 64 | 1017.0 |
| 20260507064248 | 57 | 290 | 7.0 | 10.0 | 0.00 | 0.00 | 0.00 | 65 | 1017.1 |
| 20260507063751 | 57 | 284 | 6.0 | 9.0 | 0.00 | 0.00 | 0.00 | 65 | 1017.1 |
| 20260507063254 | 57 | 282 | 6.0 | 9.0 | 0.00 | 0.00 | 0.00 | 65 | 1016.4 |
| 20260507062757 | 57 | 282 | 6.0 | 9.0 | 0.00 | 0.00 | 0.00 | 65 | 1016.4 |
| 20260507062300 | 57 | 286 | 6.0 | 9.0 | 0.00 | 0.00 | 0.00 | 65 | 1016.3 |
| 20260507061803 | 57 | 288 | 6.0 | 9.0 | 0.00 | 0.00 | 0.00 | 64 | 1016.3 |
| 20260507060809 | 57 | 294 | 6.0 | 9.0 | 0.00 | 0.00 | 0.00 | 65 | 1016.3 |
| 20260507060312 | 57 | 292 | 5.0 | 8.0 | 0.00 | 0.00 | 0.00 | 65 | 1016.4 |
| 20260507055318 | 57 | 282 | 4.0 | 7.0 | 0.00 | 0.00 | 0.00 | 65 | 1016.6 |
| 20260507054821 | 57 | 286 | 3.0 | 9.0 | 0.00 | 0.00 | 0.00 | 65 | 1016.5 |
| 20260507054324 | 57 | 284 | 6.0 | 9.0 | 0.00 | 0.00 | 0.00 | 66 | 1016.4 |
| 20260507053827 | 57 | 286 | 6.0 | 9.0 | 0.00 | 0.00 | 0.00 | 66 | 1016.4 |
| 20260507051342 | 56 | 284 | 6.0 | 9.0 | 0.00 | 0.00 | 0.00 | 69 | 1016.6 |
| 20260507045851 | 56 | 283 | 6.0 | 8.0 | 0.00 | 0.00 | 0.00 | 72 | 1016.6 |
| 20260507045354 | 56 | 283 | 5.0 | 8.0 | 0.00 | 0.00 | 0.00 | 72 | 1016.6 |
| 20260507044857 | 56 | 282 | 6.0 | 8.0 | 0.00 | 0.00 | 0.00 | 72 | 1016.6 |
| 20260507043903 | 57 | 289 | 6.0 | 9.0 | 0.00 | 0.00 | 0.00 | 72 | 1016.6 |
| 20260507043406 | 57 | 290 | 5.0 | 9.0 | 0.00 | 0.00 | 0.00 | 72 | 1016.6 |
| 20260507042412 | 57 | 285 | 6.0 | 10.0 | 0.00 | 0.00 | 0.00 | 73 | 1016.6 |
| 20260507041915 | 57 | 287 | 5.0 | 10.0 | 0.00 | 0.00 | 0.00 | 74 | 1016.6 |
| 20260507041418 | 57 | 288 | 7.0 | 10.0 | 0.00 | 0.00 | 0.00 | 74 | 1016.7 |
| 20260507040424 | 56 | 290 | 5.0 | 10.0 | 0.00 | 0.00 | 0.00 | 76 | 1016.6 |
| 20260507035927 | 56 | 285 | 6.0 | 10.0 | 0.00 | 0.00 | 0.00 | 77 | 1016.5 |
| 20260507034933 | 55 | 280 | 6.0 | 9.0 | 0.00 | 0.00 | 0.00 | 78 | 1016.4 |
| 20260507034436 | 55 | 281 | 6.0 | 10.0 | 0.00 | 0.00 | 0.00 | 78 | 1016.2 |
| 20260507033939 | 55 | 285 | 7.0 | 10.0 | 0.00 | 0.00 | 0.00 | 78 | 1016.2 |
| 20260507032945 | 54 | 289 | 5.0 | 8.0 | 0.00 | 0.00 | 0.00 | 82 | 1016.2 |
| 20260507032448 | 54 | 285 | 5.0 | 7.0 | 0.00 | 0.00 | 0.00 | 82 | 1016.3 |
| 20260507030957 | 54 | 284 | 5.0 | 9.0 | 0.00 | 0.00 | 0.00 | 85 | 1016.2 |
| 20260507030500 | 54 | 284 | 6.0 | 9.0 | 0.00 | 0.00 | 0.00 | 86 | 1016.2 |
| 20260507025506 | 54 | 281 | 6.0 | 9.0 | 0.00 | 0.00 | 0.00 | 87 | 1016.2 |
| 20260507025009 | 55 | 290 | 5.0 | 8.0 | 0.00 | 0.00 | 0.00 | 87 | 1016.3 |
| 20260507024512 | 55 | 290 | 6.0 | 8.0 | 0.00 | 0.00 | 0.00 | 87 | 1016.2 |
| 20260507023021 | 55 | 289 | 4.0 | 12.0 | 0.00 | 0.00 | 0.00 | 85 | 1016.1 |
| 20260507022524 | 56 | 269 | 5.0 | 12.0 | 0.00 | 0.00 | 0.00 | 85 | 1016.0 |
| 20260507022027 | 56 | 273 | 6.0 | 12.0 | 0.00 | 0.00 | 0.00 | 84 | 1016.0 |
| 20260507021033 | 58 | 280 | 6.0 | 12.0 | 0.00 | 0.00 | 0.00 | 81 | 1015.9 |
| 20260507020535 | 0 | 276 | 8.0 | 0.0 | 0.00 | 0.00 | 0.00 | ||
| 20260507020039 | 59 | 293 | 6.0 | 12.0 | 0.00 | 0.00 | 0.00 | 79 | 1015.9 |
| 20260507015542 | 59 | 274 | 7.0 | 13.0 | 0.00 | 0.00 | 0.00 | 78 | 1015.9 |
| 20260507015045 | 60 | 271 | 8.0 | 13.0 | 0.00 | 0.00 | 0.00 | 78 | 1015.8 |
| 20260507014548 | 60 | 280 | 6.0 | 11.0 | 0.00 | 0.00 | 0.00 | 77 | 1015.8 |
| 20260507014051 | 60 | 273 | 7.0 | 11.0 | 0.00 | 0.00 | 0.00 | 76 | 1015.8 |
| 20260507013554 | 61 | 275 | 6.0 | 11.0 | 0.00 | 0.00 | 0.00 | 76 | 1015.9 |
| 20260507013057 | 61 | 284 | 6.0 | 13.0 | 0.00 | 0.00 | 0.00 | 76 | 1015.9 |
| 20260507012644 | 61 | 281 | 7.0 | 15.0 | 0.00 | 0.00 | 0.00 | 75 | 1016.0 |
| 20260507012600 | 61 | 281 | 7.0 | 15.0 | 0.00 | 0.00 | 0.00 | 75 | 1016.0 |
| 20260507012103 | 61 | 269 | 10.0 | 15.0 | 0.00 | 0.00 | 0.00 | 74 | 1016.0 |
| 20260507011650 | 62 | 274 | 9.0 | 13.0 | 0.00 | 0.00 | 0.00 | 73 | 1015.9 |
| 20260507011606 | 62 | 274 | 9.0 | 13.0 | 0.00 | 0.00 | 0.00 | 73 | 1015.9 |
| 20260507011109 | 62 | 263 | 8.0 | 13.0 | 0.00 | 0.00 | 0.00 | 72 | 1016.0 |
| 20260507010612 | 62 | 278 | 6.0 | 13.0 | 0.00 | 0.00 | 0.00 | 73 | 1016.0 |
| 20260507005121 | 63 | 277 | 9.0 | 15.0 | 0.00 | 0.00 | 0.00 | 70 | 1015.2 |
| 20260507004659 | 63 | 275 | 10.0 | 15.0 | 0.00 | 0.00 | 0.00 | 68 | 1015.2 |
| 20260507004624 | 63 | 275 | 10.0 | 15.0 | 0.00 | 0.00 | 0.00 | 68 | 1015.2 |
| 20260507003133 | 64 | 272 | 8.0 | 13.0 | 0.00 | 0.00 | 0.00 | 66 | 1015.3 |
| 20260507001220 | 64 | 263 | 7.0 | 14.0 | 0.00 | 0.00 | 0.00 | 67 | 1015.3 |
| 20260507001145 | 64 | 263 | 7.0 | 14.0 | 0.00 | 0.00 | 0.00 | 67 | 1015.3 |
| 20260506235654 | 64 | 248 | 9.0 | 14.0 | 0.00 | 0.00 | 0.00 | 65 | 1015.2 |
| 20260506232712 | 65 | 277 | 10.0 | 17.0 | 0.00 | 0.00 | 0.00 | 64 | 1015.1 |
| 20260506225730 | 66 | 286 | 10.0 | 13.0 | 0.00 | 0.00 | 0.00 | 59 | 1015.3 |
| 20260506224736 | 67 | 277 | 6.0 | 14.0 | 0.00 | 0.00 | 0.00 | 60 | 1015.5 |
| 20260506223742 | 66 | 261 | 7.0 | 11.0 | 0.00 | 0.00 | 0.00 | 58 | 1015.6 |
| 20260506223245 | 66 | 292 | 4.0 | 12.0 | 0.00 | 0.00 | 0.00 | 62 | |
| 20260506222251 | 65 | 280 | 10.0 | 17.0 | 0.00 | 0.00 | 0.00 | 61 | 1015.8 |
| 20260506221257 | 65 | 280 | 7.0 | 15.0 | 0.00 | 0.00 | 0.00 | 60 | 1015.9 |
| 20260506220303 | 65 | 280 | 9.0 | 14.0 | 0.00 | 0.00 | 0.00 | 61 | 1016.0 |
| 20260506214812 | 66 | 281 | 8.0 | 12.0 | 0.00 | 0.00 | 0.00 | 60 | 1015.4 |
| 20260506212824 | 65 | 253 | 5.0 | 13.0 | 0.00 | 0.00 | 0.00 | 61 | 1015.6 |
| 20260506212327 | 65 | 268 | 7.0 | 0.0 | 0.00 | 0.00 | 0.00 | 63 | 1015.5 |
| 20260506210836 | 64 | 298 | 6.0 | 616.0 | 0.00 | 0.00 | 0.00 | 61 | 1015.8 |
| 20260506203854 | 65 | 282 | 7.0 | 11.0 | 0.00 | 0.00 | 0.00 | 63 | 1015.9 |
| 20260506195421 | 64 | 334 | 2.0 | 10.0 | 0.00 | 0.00 | 0.00 | 58 | 1016.5 |
| 20260506193433 | 64 | 325 | 5.0 | 9.0 | 0.00 | 0.00 | 0.00 | 63 | 1016.6 |
| 20260506191445 | 66 | 4 | 2.0 | 9.0 | 0.00 | 0.00 | 0.00 | 60 | 1016.7 |
| 20260506190451 | 68 | 74 | 6.0 | 12.0 | 0.00 | 0.00 | 0.00 | 49 | 1015.8 |
| 20260506185954 | 68 | 95 | 4.0 | 12.0 | 0.00 | 0.00 | 0.00 | 43 | 1015.9 |
| 20260506185457 | 68 | 54 | 5.0 | 13.0 | 0.00 | 0.00 | 0.00 | 45 | 1016.0 |
| 20260506185000 | 67 | 82 | 8.0 | 13.0 | 0.00 | 0.00 | 0.00 | 48 | 1016.0 |
| 20260506184503 | 67 | 97 | 8.0 | 12.0 | 0.00 | 0.00 | 0.00 | 47 | 1016.0 |
| 20260506184005 | 66 | 32 | 3.0 | 13.0 | 0.00 | 0.01 | 0.00 | 45 | 1016.0 |
| 20260506183509 | 66 | 55 | 5.0 | 13.0 | 0.00 | 0.01 | 0.00 | 46 | 1016.0 |
| 20260506183012 | 65 | 79 | 6.0 | 12.0 | 0.00 | 0.01 | 0.00 | 50 | 1016.1 |
| 20260506182514 | 64 | 78 | 6.0 | 12.0 | 0.00 | 0.01 | 0.00 | 53 | 1016.1 |
| 20260506182018 | 63 | 33 | 5.0 | 8.0 | 0.00 | 0.01 | 0.00 | 50 | 1016.1 |
| 20260506181521 | 62 | 47 | 4.0 | 8.0 | 0.00 | 0.01 | 0.00 | 53 | 1016.2 |
| 20260506181024 | 62 | 318 | 1.0 | 7.0 | 0.00 | 0.01 | 0.00 | 60 | 1016.3 |
| 20260506174539 | 61 | 228 | 2.0 | 5.0 | 0.00 | 0.02 | 0.00 | 61 | 1016.4 |
| 20260506173047 | 61 | 230 | 1.0 | 8.0 | 0.00 | 0.03 | 0.00 | 62 | 1016.4 |
| 20260506172054 | 62 | 312 | 3.0 | 9.0 | 0.00 | 0.04 | 0.00 | 56 | 1016.5 |
| 20260506171557 | 62 | 23 | 3.0 | 9.0 | 0.00 | 0.04 | 0.00 | 46 | 1016.6 |
| 20260506171059 | 62 | 92 | 4.0 | 9.0 | 0.00 | 0.04 | 0.00 | 51 | 1016.5 |
| 20260506170602 | 62 | 172 | 3.0 | 9.0 | 0.00 | 0.04 | 0.00 | 53 | 1016.5 |
| 20260506170106 | 62 | 84 | 2.0 | 7.0 | 0.00 | 0.05 | 0.00 | 52 | 1016.5 |
| 20260506165609 | 62 | 141 | 1.0 | 10.0 | 0.00 | 0.05 | 0.00 | 46 | 1016.5 |
| 20260506165112 | 62 | 37 | 4.0 | 10.0 | 0.00 | 0.06 | 0.00 | 53 | 1016.4 |
| 20260506164615 | 61 | 38 | 2.0 | 12.0 | 0.00 | 0.06 | 0.00 | 55 | 1016.4 |
| 20260506164117 | 60 | 71 | 8.0 | 12.0 | 0.00 | 0.06 | 0.00 | 58 | 1015.6 |
| 20260506163124 | 59 | 281 | 2.0 | 5.0 | 0.00 | 0.06 | 0.00 | 60 | 1015.5 |
| 20260506162627 | 58 | 345 | 3.0 | 5.0 | 0.00 | 0.07 | 0.00 | 61 | 1015.4 |
| 20260506161136 | 57 | 317 | 1.0 | 4.0 | 0.00 | 0.07 | 0.00 | 67 | 1015.4 |
| 20260506160639 | 56 | 292 | 2.0 | 4.0 | 0.00 | 0.08 | 0.00 | 68 | 1015.5 |
| 20260506155148 | 55 | 305 | 3.0 | 7.0 | 0.00 | 0.08 | 0.00 | 67 | 1015.6 |
| 20260506154651 | 55 | 310 | 3.0 | 6.0 | 0.00 | 0.08 | 0.00 | 67 | 1015.4 |
| 20260506154154 | 54 | 318 | 3.0 | 7.0 | 0.00 | 0.09 | 0.00 | 68 | 1015.4 |
| 20260506153656 | 54 | 321 | 4.0 | 7.0 | 0.00 | 0.09 | 0.00 | 68 | 1015.4 |
| 20260506153200 | 54 | 309 | 4.0 | 7.0 | 0.00 | 0.09 | 0.00 | 69 | 1015.4 |
| 20260506152703 | 53 | 319 | 5.0 | 7.0 | 0.00 | 0.10 | 0.00 | 69 | 1015.3 |
| 20260506152206 | 53 | 317 | 3.0 | 8.0 | 0.00 | 0.10 | 0.00 | 70 | 1015.3 |
| 20260506151709 | 53 | 313 | 4.0 | 8.0 | 0.00 | 0.10 | 0.00 | 71 | 1015.3 |
| 20260506151212 | 52 | 317 | 4.0 | 7.0 | 0.00 | 0.10 | 0.00 | 72 | 1015.4 |
| 20260506150715 | 52 | 319 | 3.0 | 6.0 | 0.00 | 0.10 | 0.00 | 73 | 1015.4 |
| 20260506150217 | 51 | 318 | 2.0 | 6.0 | 0.00 | 0.10 | 0.00 | 74 | 1015.3 |
| 20260506145721 | 51 | 298 | 3.0 | 8.0 | 0.00 | 0.10 | 0.00 | 75 | 1015.2 |
| 20260506145224 | 50 | 306 | 2.0 | 8.0 | 0.00 | 0.10 | 0.00 | 76 | 1015.4 |
| 20260506144727 | 50 | 287 | 4.0 | 7.0 | 0.00 | 0.10 | 0.00 | 77 | 1015.3 |
| 20260506144230 | 49 | 295 | 4.0 | 8.0 | 0.00 | 0.10 | 0.00 | 77 | 1015.3 |
| 20260506143733 | 49 | 291 | 3.0 | 8.0 | 0.00 | 0.10 | 0.10 | 78 | 1015.2 |
| 20260506143236 | 48 | 292 | 5.0 | 8.0 | 0.00 | 0.10 | 0.10 | 79 | 1015.1 |
| 20260506142739 | 48 | 289 | 5.0 | 9.0 | 0.00 | 0.10 | 0.10 | 80 | 1015.1 |
| 20260506142242 | 47 | 300 | 4.0 | 9.0 | 0.00 | 0.10 | 0.10 | 82 | 1015.0 |
| 20260506141745 | 47 | 307 | 4.0 | 9.0 | 0.00 | 0.10 | 0.10 | 85 | 1014.9 |
| 20260506141248 | 46 | 314 | 2.0 | 5.0 | 0.00 | 0.11 | 0.10 | 86 | 1015.0 |
| 20260506140835 | 45 | 301 | 3.0 | 6.0 | 0.00 | 0.11 | 0.10 | 87 | 1014.9 |
| 20260506140751 | 45 | 301 | 3.0 | 6.0 | 0.00 | 0.11 | 0.10 | 87 | 1014.9 |
| 20260506140254 | 45 | 298 | 4.0 | 7.0 | 0.00 | 0.11 | 0.10 | 88 | 1014.9 |
| 20260506135757 | 44 | 295 | 3.0 | 7.0 | 0.00 | 0.12 | 0.10 | 89 | 1014.9 |
| 20260506135300 | 44 | 300 | 4.0 | 7.0 | 0.00 | 0.13 | 0.10 | 89 | 1015.0 |
| 20260506134803 | 44 | 311 | 3.0 | 7.0 | 0.00 | 0.13 | 0.10 | 90 | 1014.9 |
| 20260506134306 | 43 | 299 | 2.0 | 9.0 | 0.00 | 0.13 | 0.10 | 90 | 1014.8 |
| 20260506133809 | 43 | 316 | 4.0 | 10.0 | 0.00 | 0.14 | 0.10 | 91 | 1014.7 |
| 20260506133312 | 43 | 277 | 5.0 | 10.0 | 0.00 | 0.14 | 0.10 | 91 | 1014.6 |
| 20260506132815 | 43 | 286 | 5.0 | 10.0 | 0.00 | 0.14 | 0.10 | 91 | 1014.7 |
| 20260506132318 | 42 | 293 | 5.0 | 12.0 | 0.00 | 0.14 | 0.10 | 92 | 1014.6 |
| 20260506131821 | 42 | 283 | 6.0 | 12.0 | 0.00 | 0.15 | 0.10 | 92 | 1014.6 |
| 20260506131323 | 42 | 287 | 5.0 | 10.0 | 0.00 | 0.16 | 0.10 | 93 | 1014.4 |
| 20260506130827 | 42 | 277 | 7.0 | 12.0 | 0.00 | 0.17 | 0.10 | 92 | 1014.4 |
| 20260506130330 | 42 | 280 | 7.0 | 12.0 | 0.00 | 0.18 | 0.10 | 93 | 1014.4 |
| 20260506125833 | 42 | 282 | 5.0 | 11.0 | 0.00 | 0.18 | 0.10 | 92 | 1014.3 |
| 20260506125336 | 42 | 280 | 7.0 | 12.0 | 0.00 | 0.19 | 0.10 | 93 | 1014.1 |
| 20260506124839 | 42 | 290 | 6.0 | 12.0 | 0.00 | 0.20 | 0.10 | 93 | 1014.1 |
| 20260506124441 | 42 | 279 | 6.0 | 13.0 | 0.00 | 0.20 | 0.10 | 93 | 1014.0 |
| 20260506124342 | 42 | 279 | 6.0 | 13.0 | 0.00 | 0.20 | 0.10 | 93 | 1014.0 |
| 20260506123845 | 42 | 292 | 6.0 | 13.0 | 0.00 | 0.21 | 0.10 | 93 | 1014.0 |
| 20260506123348 | 42 | 266 | 7.0 | 14.0 | 0.00 | 0.21 | 0.10 | 93 | 1014.0 |
| 20260506122851 | 42 | 284 | 6.0 | 14.0 | 0.00 | 0.23 | 0.10 | 93 | 1014.0 |
| 20260506122354 | 42 | 270 | 7.0 | 14.0 | 0.00 | 0.23 | 0.10 | 94 | 1013.9 |
| 20260506121857 | 42 | 286 | 6.0 | 13.0 | 0.00 | 0.23 | 0.10 | 94 | 1013.9 |
| 20260506121359 | 42 | 289 | 5.0 | 11.0 | 0.00 | 0.23 | 0.10 | 94 | 1013.9 |
| 20260506120903 | 42 | 281 | 5.0 | 14.0 | 0.00 | 0.23 | 0.10 | 94 | 1013.9 |
| 20260506120406 | 41 | 277 | 6.0 | 15.0 | 0.00 | 0.23 | 0.10 | 95 | 1013.8 |
| 20260506115909 | 41 | 266 | 9.0 | 17.0 | 0.00 | 0.23 | 0.10 | 95 | 1013.8 |
| 20260506115412 | 41 | 264 | 11.0 | 17.0 | 0.00 | 0.24 | 0.10 | 95 | 1013.9 |
| 20260506114915 | 41 | 270 | 5.0 | 15.0 | 0.00 | 0.24 | 0.10 | 95 | 1013.8 |
| 20260506114418 | 41 | 263 | 9.0 | 16.0 | 0.00 | 0.24 | 0.10 | 95 | 1013.6 |
| 20260506113921 | 41 | 270 | 10.0 | 16.0 | 0.00 | 0.24 | 0.10 | 96 | 1013.6 |
| 20260506113424 | 41 | 260 | 6.0 | 16.0 | 0.00 | 0.24 | 0.10 | 97 | 1013.6 |
| 20260506112927 | 41 | 275 | 10.0 | 18.0 | 0.00 | 0.24 | 0.10 | 97 | 1013.8 |
| 20260506112430 | 41 | 272 | 10.0 | 18.0 | 0.00 | 0.24 | 0.10 | 97 | 1013.7 |
| 20260506111932 | 40 | 274 | 9.0 | 13.0 | 0.00 | 0.24 | 0.10 | 97 | 1013.7 |
| 20260506111508 | 41 | 279 | 7.0 | 14.0 | 0.00 | 0.24 | 0.10 | 97 | 1013.7 |
| 20260506111436 | 41 | 279 | 7.0 | 14.0 | 0.00 | 0.24 | 0.10 | 97 | 1013.7 |
| 20260506110939 | 41 | 272 | 9.0 | 14.0 | 0.00 | 0.25 | 0.10 | 97 | 1013.6 |
| 20260506110442 | 40 | 273 | 8.0 | 11.0 | 0.00 | 0.25 | 0.10 | 97 | 1013.5 |
| 20260506105945 | 41 | 273 | 7.0 | 13.0 | 0.00 | 0.25 | 0.10 | 97 | 1013.5 |
| 20260506105520 | 41 | 268 | 7.0 | 14.0 | 0.00 | 0.25 | 0.10 | 97 | 1013.5 |
| 20260506105448 | 41 | 268 | 7.0 | 14.0 | 0.00 | 0.25 | 0.10 | 97 | 1013.5 |
| 20260506104454 | 41 | 284 | 7.0 | 15.0 | 0.00 | 0.25 | 0.10 | 97 | 1013.6 |
| 20260506103957 | 41 | 270 | 11.0 | 17.0 | 0.00 | 0.26 | 0.10 | 97 | 1013.6 |
| 20260506103500 | 41 | 268 | 9.0 | 17.0 | 0.00 | 0.26 | 0.10 | 97 | 1013.6 |
| 20260506103004 | 41 | 274 | 9.0 | 15.0 | 0.00 | 0.27 | 0.10 | 97 | 1013.6 |
| 20260506102506 | 41 | 276 | 9.0 | 17.0 | 0.00 | 0.27 | 0.10 | 97 | 1013.5 |
| 20260506102009 | 41 | 262 | 11.0 | 17.0 | 0.00 | 0.28 | 0.10 | 97 | 1013.6 |
| 20260506101551 | 41 | 258 | 10.0 | 16.0 | 0.00 | 0.28 | 0.10 | 97 | 1013.4 |
| 20260506101512 | 41 | 258 | 10.0 | 16.0 | 0.00 | 0.28 | 0.10 | 97 | 1013.4 |
| 20260506101049 | 41 | 270 | 9.0 | 17.0 | 0.00 | 0.29 | 0.10 | 97 | 1013.5 |
| 20260506101015 | 41 | 270 | 9.0 | 17.0 | 0.00 | 0.29 | 0.10 | 97 | 1013.5 |
| 20260506100518 | 41 | 270 | 11.0 | 17.0 | 0.00 | 0.30 | 0.10 | 98 | 1013.5 |
| 20260506100021 | 41 | 266 | 10.0 | 17.0 | 0.00 | 0.30 | 0.10 | 98 | 1013.5 |